Muenster, Germany

11:22 PM CEST on July 26, 2017 (GMT +0200)
Munster-Osnabruck

Weather History for EDDG - October, 2013

Change the Weather History Date:

Sunday, October 27, 2013

  Actual Average Record
Temperature  
Mean Temperature 58 °F -  
Max Temperature 61 °F 47 °F 69 °F (2005)
Min Temperature 55 °F 37 °F 25 °F (2012)
Degree Days  
Heating Degree Days 7    
Growing Degree Days 8 (Base 50)    
Moisture  
Dew Point 52 °F    
Average Humidity 76    
Maximum Humidity 94    
Minimum Humidity 57    
Precipitation  
Precipitation 0.16 in - - ()
Sea Level Pressure  
Sea Level Pressure 29.62 in    
Wind  
Wind Speed 11 mph ()    
Max Wind Speed 29 mph    
Max Gust Speed 45 mph    
Visibility 6.0 miles    
Events Rain    
Averages and records for this station are not official NWS values.
T = Trace of Precipitation, MM = Missing Value Source: Averaged Metar Reports

Daily Weather History Graph

Daily Weather History Graph

Search for Another Location

Airport or City:

Trip Planner

Search our weather history database for the weather conditions in past years. The results will help you decide how hot, cold, wet, or windy it might be!

Date:

Astronomy

Oct. 27, 2013 Rise Set
Actual Time 7:15 AM CET 5:09 PM CET
Civil Twilight 6:40 AM CET 5:44 PM CET
Nautical Twilight 6:00 AM CET 6:24 PM CET
Astronomical Twilight 5:21 AM CET 7:03 PM CET
Moon No Moon Rise 1:56 PM CET (10/27)
Length of Visible Light 11h 04m
Length of Day
9h 54m
Last Quarter, 45% of the Moon is Illuminated
Oct 27
Last Quarter
Nov 3
New
Nov 10
First Quarter
Nov 17
Full
Nov 25
Last Quarter

Hourly Weather History & Observations

Time (CET) Temp. Dew Point Humidity Pressure Visibility Wind Dir Wind Speed Gust Speed Precip Events Conditions
12:00 AM 61 °F 57 °F 82% 29.78 in 25 mi South 6.7 mph - -  
12:20 AM 60.8 °F 57.2 °F 88% 29.77 in - South 6.9 mph - N/A   Clear
12:50 AM 60.8 °F 57.2 °F 88% 29.77 in - South 6.9 mph - N/A   Clear
1:00 AM 60 °F 57 °F 86% 29.77 in 25 mi South 6.7 mph - -   Mostly Cloudy
1:20 AM 59.0 °F 57.2 °F 94% 29.74 in - South 5.8 mph - N/A   Clear
1:50 AM 59.0 °F 55.4 °F 88% 29.74 in - South 5.8 mph - N/A   Clear
2:00 AM 59 °F 56 °F 86% 29.75 in 25 mi South 6.7 mph - -   Partly Cloudy
2:20 AM 59.0 °F 55.4 °F 88% 29.71 in - South 5.8 mph - N/A   Clear
2:50 AM 59.0 °F 57.2 °F 94% 29.71 in - South 6.9 mph - N/A   Clear
2:00 AM 60 °F 56 °F 84% 29.74 in 25 mi South 6.7 mph - -   Mostly Cloudy
2:20 AM 60.8 °F 57.2 °F 88% 29.71 in - South 9.2 mph - N/A   Clear
2:50 AM 60.8 °F 55.4 °F 82% 29.71 in - South 9.2 mph - N/A   Clear
3:00 AM 61 °F 56 °F 80% 29.71 in 25 mi South 8.9 mph - -   Partly Cloudy
3:20 AM 60.8 °F 55.4 °F 82% 29.68 in - South 6.9 mph - N/A   Clear
3:50 AM 60.8 °F 55.4 °F 82% 29.68 in - South 5.8 mph - N/A   Clear
4:00 AM 60 °F 56 °F 82% 29.70 in 25 mi South 6.7 mph - -   Scattered Clouds
4:20 AM 60.8 °F 55.4 °F 82% 29.68 in 6.2 mi SSW 9.2 mph - N/A   Scattered Clouds
4:50 AM 62.6 °F 53.6 °F 72% 29.65 in 6.2 mi SSW 11.5 mph - N/A   Partly Cloudy
5:00 AM 62 °F 54 °F 68% 29.68 in 25 mi SSW 11.2 mph - -   Partly Cloudy
5:20 AM 60.8 °F 53.6 °F 77% 29.65 in 6.2 mi SSW 12.7 mph - N/A   Partly Cloudy
5:50 AM 60.8 °F 53.6 °F 77% 29.65 in 6.2 mi SSW 12.7 mph - N/A   Partly Cloudy
6:00 AM 61 °F 53 °F 67% 29.66 in 22 mi SSW 13.4 mph - -   Scattered Clouds
6:20 AM 60.8 °F 53.6 °F 77% 29.62 in 6.2 mi South 11.5 mph - N/A   Partly Cloudy
6:50 AM 60.8 °F 53.6 °F 77% 29.62 in 6.2 mi SSW 12.7 mph - N/A   Scattered Clouds
7:00 AM 60 °F 53 °F 69% 29.64 in 22 mi SSW 13.4 mph - -   Partly Cloudy
7:20 AM 60.8 °F 51.8 °F 72% 29.62 in 6.2 mi SSW 13.8 mph - N/A   Partly Cloudy
7:50 AM 60.8 °F 51.8 °F 72% 29.59 in 6.2 mi South 13.8 mph - N/A   Partly Cloudy
8:00 AM 60 °F 51 °F 65% 29.62 in 25 mi South 13.4 mph - -   Scattered Clouds
8:20 AM 60.8 °F 50.0 °F 68% 29.59 in 6.2 mi SSW 17.3 mph 29.9 mph N/A   Partly Cloudy
8:50 AM 60.8 °F 50.0 °F 68% 29.59 in 6.2 mi South 15.0 mph 27.6 mph N/A   Mostly Cloudy
9:00 AM 61 °F 50 °F 58% 29.59 in 25 mi South 15.7 mph - -   Mostly Cloudy
9:20 AM 60.8 °F 50.0 °F 68% 29.56 in 6.2 mi South 16.1 mph 29.9 mph N/A   Mostly Cloudy
9:50 AM 60.8 °F 50.0 °F 68% 29.56 in 6.2 mi South 16.1 mph - N/A   Mostly Cloudy
10:00 AM 61 °F 50 °F 57% 29.56 in 25 mi South 15.7 mph - -   Mostly Cloudy
10:20 AM 59.0 °F 53.6 °F 82% 29.56 in 5.6 mi SSW 15.0 mph - N/A Rain Rain
10:50 AM 59.0 °F 53.6 °F 82% 29.56 in 6.2 mi SSW 18.4 mph 32.2 mph N/A Rain Light Rain
11:00 AM 58 °F 54 °F 81% 29.56 in 9 mi SSW 17.9 mph - - Rain Light Rain
11:20 AM 57.2 °F 53.6 °F 88% 29.53 in 6.2 mi South 15.0 mph - N/A   Mostly Cloudy
11:50 AM 59.0 °F 53.6 °F 82% 29.53 in 6.2 mi SSW 17.3 mph - N/A   Scattered Clouds
12:00 PM 60 °F 54 °F 74% 29.55 in 25 mi SSW 17.9 mph - - Rain Light Rain
12:20 PM 60.8 °F 51.8 °F 72% 29.53 in 6.2 mi SSW 15.0 mph - N/A   Mostly Cloudy
12:50 PM 55.4 °F 51.8 °F 88% 29.53 in 2.8 mi SW 28.8 mph 44.9 mph N/A Rain Rain Showers
1:00 PM 55 °F 50 °F 78% 29.55 in 3 mi SW 29.1 mph - - Rain Heavy Rain Showers
1:20 PM 57.2 °F 51.8 °F 82% 29.53 in 6.2 mi WSW 13.8 mph - N/A   Mostly Cloudy
1:50 PM 57.2 °F 50.0 °F 77% 29.53 in 4.3 mi WSW 17.3 mph 36.8 mph N/A Rain Rain Showers
2:00 PM 58 °F 51 °F 70% 29.56 in 4 mi WSW 17.9 mph - - Rain Heavy Rain Showers
2:20 PM 57.2 °F 50.0 °F 77% 29.56 in 6.2 mi WSW 16.1 mph - N/A   Mostly Cloudy
2:50 PM 59.0 °F 50.0 °F 72% 29.56 in 6.2 mi SW 12.7 mph - N/A   Scattered Clouds
3:00 PM 58 °F 50 °F 67% 29.57 in 25 mi SW 13.4 mph - - Rain Light Rain Showers
3:20 PM 59.0 °F 51.8 °F 77% 29.56 in 6.2 mi SSW 9.2 mph - N/A   Mostly Cloudy
3:50 PM 59.0 °F 50.0 °F 72% 29.56 in 6.2 mi SW 13.8 mph - N/A   Mostly Cloudy
4:00 PM 59 °F 50 °F 63% 29.57 in 25 mi SW 13.4 mph - -   Partly Cloudy
4:20 PM 59.0 °F 50.0 °F 72% 29.56 in 6.2 mi SW 16.1 mph 27.6 mph N/A Rain Light Rain Showers
4:50 PM 57.2 °F 50.0 °F 77% 29.56 in 6.2 mi SW 11.5 mph - N/A   Scattered Clouds
5:00 PM 57 °F 50 °F 70% 29.59 in 25 mi SW 11.2 mph - - Rain Light Rain Showers
5:20 PM 57.2 °F 48.2 °F 72% 29.59 in 6.2 mi SW 16.1 mph - N/A   Scattered Clouds
5:50 PM 57.2 °F 48.2 °F 72% 29.59 in 6.2 mi SW 12.7 mph - N/A   Scattered Clouds
6:00 PM 57 °F 49 °F 67% 29.60 in 25 mi SW 13.4 mph - -   Partly Cloudy
6:20 PM 57.2 °F 48.2 °F 72% 29.59 in 6.2 mi SSW 11.5 mph - N/A   Scattered Clouds
6:50 PM 57.2 °F 48.2 °F 72% 29.59 in 6.2 mi SW 17.3 mph - N/A   Mostly Cloudy
7:00 PM 58 °F 48 °F 61% 29.61 in 25 mi SW 15.7 mph - -   Partly Cloudy
7:20 PM 57.2 °F 46.4 °F 67% 29.62 in 6.2 mi SW 18.4 mph 31.1 mph N/A   Mostly Cloudy
7:50 PM 57.2 °F 48.2 °F 72% 29.62 in 6.2 mi SSW 18.4 mph 31.1 mph N/A   Mostly Cloudy
8:00 PM 56 °F 48 °F 67% 29.62 in 25 mi SSW 17.9 mph - -   Mostly Cloudy
8:20 PM 55.4 °F 48.2 °F 77% 29.62 in 6.2 mi SSW 17.3 mph 28.8 mph N/A   Scattered Clouds
8:50 PM 55.4 °F 48.2 °F 77% 29.62 in 6.2 mi SSW 16.1 mph - N/A   Partly Cloudy
9:00 PM 56 °F 49 °F 69% 29.63 in 25 mi SW 15.7 mph - -   Partly Cloudy
9:20 PM 55.4 °F 48.2 °F 77% 29.62 in 6.2 mi SSW 17.3 mph - N/A   Scattered Clouds
9:50 PM 57.2 °F 48.2 °F 72% 29.62 in 6.2 mi SSW 17.3 mph - N/A   Mostly Cloudy
10:00 PM 56 °F 48 °F 68% 29.63 in 25 mi SSW 17.9 mph - -   Mostly Cloudy
10:20 PM 57.2 °F 48.2 °F 72% 29.62 in 6.2 mi SSW 17.3 mph - N/A   Scattered Clouds
10:50 PM 57.2 °F 48.2 °F 72% 29.62 in 6.2 mi SSW 15.0 mph - N/A   Partly Cloudy